Location: México DF
(19.4326°N, 99.1332°W)
Time: 23:01:45
(UTC+00:00)

ISS - Pass Details

Date: 06 October 2024
Orbit: 412 x 423 km, 51.6° (Epoch: 10 October)

Event Time Altitude Azimuth Distance (km) Brightness Sun altitude
Rises 01:49:19 0° 295° (WNW) 2,355 1.2 -21.7°
Reaches altitude 10° 01:52:13 10° 267° (W) 1,493 0.2 -22.4°
Maximum altitude 01:53:57 14° 236° (SW) 1,298 -0.6 -22.8°
Drops below altitude 10° 01:55:42 10° 204° (SSW) 1,495 -0.7 -23.2°
Enters shadow 01:56:42 - 192° (SSW) 1,743 -0.5 -23.4°
